Total_Precipitation_Accumulation
0.25 0.27 0.39 0.44 0.38 0.38 0.45 0.51 0.66 0.65 0.64 0.52 0.49 0.53 0.56 0.54 0.49 0.45 0.39 0.34 0.35 0.35 0.38 0.37 0.38 0.40 0.40 0.38 0.44 0.51 0.65 0.77 0.82 0.85 0.86 0.82 0.75 0.72 0.76 0.74 0.72 0.84 1.00 1.16
0.16 0.18 0.25 0.32 0.34 0.35 0.35 0.40 0.50 0.57 0.55 0.43 0.39 0.38 0.38 0.36 0.31 0.29 0.29 0.26 0.24 0.25 0.26 0.26 0.24 0.24 0.26 0.33 0.41 0.47 0.54 0.64 0.80 0.87 0.80 0.75 0.67 0.66 0.69 0.67 0.64 0.70 0.84 1.03
0.25 0.21 0.23 0.48 0.51 0.51 0.52 0.46 0.45 0.40 0.32 0.21 0.20 0.23 0.26 0.26 0.26 0.29 0.25 0.20 0.18 0.19 0.20 0.21 0.22 0.25 0.28 0.34 0.44 0.44 0.48 0.60 0.80 0.81 0.70 0.65 0.70 0.74 0.71 0.68 0.68 0.71 0.74 0.78
0.27 0.29 0.57 0.82 0.61 0.58 0.52 0.31 0.17 0.13 0.12 0.12 0.17 0.17 0.15 0.16 0.19 0.22 0.19 0.15 0.13 0.13 0.13 0.14 0.17 0.21 0.24 0.28 0.32 0.35 0.41 0.50 0.65 0.67 0.66 0.69 0.69 0.67 0.62 0.58 0.56 0.59 0.61 0.65
0.29 0.33 0.60 0.64 0.41 0.33 0.33 0.21 0.07 0.06 0.08 0.10 0.12 0.11 0.09 0.09 0.10 0.11 0.11 0.07 0.06 0.06 0.05 0.05 0.06 0.07 0.11 0.13 0.16 0.21 0.28 0.36 0.46 0.49 0.54 0.56 0.55 0.56 0.52 0.48 0.50 0.51 0.54 0.62
0.44 0.54 0.58 0.31 0.16 0.15 0.22 0.26 0.06 0.03 0.04 0.04 0.06 0.09 0.06 0.04 0.05 0.05 0.05 0.04 0.03 0.02 0.01 0.01 0.01 0.02 0.04 0.06 0.10 0.14 0.20 0.27 0.34 0.37 0.41 0.43 0.48 0.51 0.51 0.48 0.46 0.46 0.47 0.51
0.46 0.65 0.54 0.21 0.11 0.11 0.21 0.27 0.08 0.03 0.02 0.02 0.02 0.04 0.02 0.03 0.04 0.04 0.03 0.03 0.01 0.01 0.00 0.00 0.01 0.01 0.02 0.05 0.07 0.08 0.11 0.16 0.23 0.30 0.37 0.45 0.51 0.52 0.55 0.52 0.47 0.46 0.52 0.54
0.38 0.54 0.49 0.20 0.15 0.18 0.17 0.08 0.03 0.02 0.01 0.01 0.01 0.01 0.01 0.02 0.02 0.03 0.03 0.02 0.01 0.01 0.00 0.00 0.01 0.01 0.01 0.02 0.03 0.04 0.06 0.11 0.18 0.26 0.33 0.42 0.51 0.54 0.54 0.54 0.53 0.54 0.55 0.58
0.43 0.57 0.38 0.23 0.20 0.19 0.12 0.06 0.02 0.01 0.01 0.00 0.00 0.00 0.00 0.01 0.02 0.02 0.03 0.02 0.01 0.01 0.01 0.00 0.01 0.01 0.00 0.00 0.00 0.01 0.02 0.06 0.11 0.15 0.19 0.25 0.32 0.41 0.47 0.51 0.53 0.53 0.58 0.66
0.32 0.32 0.20 0.18 0.16 0.12 0.07 0.04 0.02 0.01 0.00 0.00 0.00 0.00 0.00 0.01 0.01 0.02 0.02 0.01 0.01 0.01 0.01 0.01 0.00 0.00 0.00 0.00 0.00 0.00 0.01 0.03 0.05 0.06 0.07 0.10 0.20 0.28 0.35 0.42 0.47 0.55 0.62 0.70
0.25 0.25 0.15 0.10 0.10 0.07 0.04 0.02 0.01 0.01 0.00 0.00 0.00 0.00 0.00 0.00 0.00 0.01 0.01 0.01 0.01 0.01 0.01 0.00 0.00 0.00 0.00 0.01 0.01 0.01 0.01 0.01 0.02 0.04 0.06 0.08 0.14 0.22 0.27 0.34 0.37 0.41 0.52 0.64
0.24 0.23 0.17 0.08 0.07 0.05 0.03 0.02 0.01 0.01 0.00 0.00 0.00 0.00 0.00 0.00 0.00 0.01 0.01 0.01 0.01 0.01 0.01 0.00 0.00 0.00 0.01 0.03 0.02 0.04 0.06 0.03 0.02 0.03 0.06 0.08 0.11 0.13 0.13 0.16 0.16 0.20 0.25 0.30
0.12 0.13 0.11 0.06 0.05 0.03 0.02 0.02 0.01 0.00 0.00 0.00 0.00 0.00 0.00 0.00 0.00 0.00 0.00 0.00 0.01 0.01 0.01 0.01 0.00 0.00 0.01 0.02 0.05 0.12 0.14 0.11 0.07 0.05 0.05 0.06 0.07 0.10 0.11 0.07 0.05 0.07 0.08 0.14
0.06 0.07 0.08 0.06 0.03 0.02 0.01 0.01 0.01 0.00 0.00 0.00 0.00 0.00 0.00 0.00 0.00 0.00 0.00 0.00 0.01 0.01 0.01 0.01 0.00 0.00 0.00 0.00 0.02 0.03 0.03 0.03 0.05 0.08 0.05 0.04 0.07 0.13 0.19 0.21 0.15 0.08 0.04 0.06
0.04 0.05 0.06 0.05 0.02 0.01 0.01 0.00 0.00 0.00 0.00 0.00 0.00 0.00 0.00 0.00 0.00 0.00 0.00 0.00 0.00 0.01 0.01 0.01 0.00 0.00 0.00 0.00 0.00 0.00 0.01 0.03 0.09 0.10 0.06 0.05 0.10 0.18 0.20 0.19 0.18 0.12 0.06 0.03
0.02 0.02 0.03 0.03 0.02 0.01 0.00 0.00 0.00 0.00 0.00 0.00 0.00 0.00 0.00 0.00 0.00 0.00 0.00 0.00 0.00 0.01 0.01 0.01 0.00 0.00 0.00 0.00 0.01 0.01 0.02 0.02 0.09 0.14 0.08 0.08 0.10 0.10 0.10 0.12 0.10 0.07 0.06 0.05
0.01 0.01 0.01 0.02 0.01 0.00 0.00 0.00 0.00 0.00 0.00 0.00 0.00 0.00 0.00 0.00 0.00 0.00 0.00 0.00 0.00 0.01 0.01 0.01 0.00 0.00 0.00 0.01 0.01 0.03 0.06 0.03 0.03 0.14 0.17 0.14 0.12 0.10 0.11 0.13 0.09 0.05 0.03 0.01
0.00 0.00 0.01 0.01 0.01 0.00 0.00 0.00 0.00 0.00 0.00 0.00 0.00 0.00 0.00 0.00 0.00 0.00 0.00 0.00 0.00 0.00 0.01 0.01 0.00 0.00 0.00 0.01 0.01 0.01 0.02 0.03 0.04 0.13 0.18 0.14 0.11 0.11 0.12 0.10 0.08 0.05 0.03 0.01
0.00 0.00 0.00 0.01 0.01 0.00 0.00 0.00 0.00 0.00 0.00 0.00 0.00 0.00 0.00 0.00 0.00 0.00 0.00 0.00 0.00 0.00 0.00 0.00 0.00 0.00 0.00 0.00 0.01 0.01 0.01 0.02 0.03 0.07 0.08 0.04 0.05 0.08 0.09 0.09 0.06 0.04 0.03 0.02
0.00 0.00 0.00 0.00 0.00 0.00 0.00 0.00 0.00 0.00 0.00 0.00 0.00 0.00 0.00 0.00 0.00 0.00 0.00 0.00 0.00 0.00 0.00 0.00 0.00 0.00 0.00 0.00 0.00 0.01 0.01 0.01 0.02 0.04 0.04 0.05 0.08 0.09 0.07 0.06 0.06 0.04 0.03 0.03
0.00 0.00 0.00 0.00 0.00 0.00 0.00 0.00 0.00 0.00 0.00 0.00 0.00 0.00 0.00 0.00 0.00 0.00 0.00 0.00 0.00 0.00 0.00 0.00 0.00 0.00 0.00 0.00 0.00 0.01 0.02 0.01 0.02 0.03 0.04 0.05 0.05 0.07 0.07 0.06 0.07 0.06 0.05 0.04
0.00 0.00 0.00 0.00 0.00 0.00 0.00 0.00 0.00 0.00 0.00 0.00 0.00 0.00 0.00 0.00 0.00 0.00 0.00 0.00 0.00 0.00 0.00 0.00 0.00 0.00 0.00 0.00 0.01 0.01 0.02 0.01 0.02 0.04 0.05 0.06 0.06 0.07 0.06 0.06 0.07 0.07 0.06 0.06
0.00 0.00 0.00 0.00 0.00 0.00 0.00 0.00 0.00 0.00 0.00 0.00 0.00 0.00 0.00 0.00 0.00 0.00 0.00 0.00 0.00 0.00 0.00 0.00 0.00 0.00 0.00 0.00 0.01 0.01 0.01 0.01 0.02 0.03 0.04 0.04 0.05 0.06 0.06 0.04 0.04 0.04 0.07 0.09
0.00 0.00 0.00 0.00 0.00 0.00 0.00 0.00 0.00 0.00 0.00 0.00 0.00 0.00 0.00 0.00 0.00 0.00 0.00 0.00 0.00 0.00 0.00 0.00 0.00 0.00 0.00 0.00 0.00 0.00 0.00 0.01 0.01 0.01 0.01 0.02 0.02 0.03 0.04 0.04 0.04 0.04 0.05 0.06
0.00 0.00 0.00 0.00 0.00 0.00 0.00 0.00 0.00 0.00 0.00 0.00 0.00 0.00 0.00 0.00 0.00 0.00 0.00 0.00 0.00 0.00 0.00 0.00 0.00 0.00 0.00 0.00 0.00 0.00 0.00 0.01 0.01 0.01 0.01 0.01 0.01 0.01 0.02 0.02 0.03 0.03 0.04 0.03
0.00 0.00 0.00 0.00 0.00 0.00 0.00 0.00 0.00 0.00 0.00 0.00 0.00 0.00 0.00 0.00 0.00 0.00 0.00 0.00 0.00 0.00 0.00 0.00 0.00 0.00 0.00 0.00 0.00 0.00 0.01 0.01 0.01 0.01 0.01 0.01 0.01 0.02 0.02 0.01 0.01 0.01 0.02 0.02
0.01 0.00 0.00 0.00 0.00 0.00 0.00 0.00 0.00 0.00 0.00 0.00 0.00 0.00 0.00 0.00 0.00 0.00 0.00 0.00 0.00 0.00 0.00 0.00 0.00 0.00 0.00 0.00 0.00 0.00 0.01 0.01 0.01 0.01 0.01 0.02 0.02 0.02 0.02 0.02 0.02 0.02 0.03 0.03